Simultaneous Nadir Overpasses (SNOs) Predictions

Prediction of SNOs between METOP-B and TERRA Satellite Orbit:

Table of predicted SNOs for the next 14.0 days since TLE Epoch: 7/19/2014
Index Date (METOP-B) Time (METOP-B) Lat,Lon (METOP-B) SZA (METOP-B ) Date (TERRA) Time (TERRA) Lat,Lon (TERRA) SZA (TERRA ) Distance(km) Time Diff (sec)
1 07/21/2014 06:46:41 -81.33, -53.93 116.37 07/21/2014 06:46:55 -81.33, -54.01 116.37 1.31 14
2 07/21/2014 07:37:21 81.33, 113.73 63.69 07/21/2014 07:36:21 81.33, 113.69 63.65 0.87 60
3 07/24/2014 02:21:01 -81.33, 12.34 115.83 07/24/2014 02:21:05 -81.33, 12.50 115.80 2.83 4
4 07/24/2014 03:11:40 81.34,-179.67 64.27 07/24/2014 03:10:31 81.33,-179.83 64.21 2.77 69
5 07/26/2014 21:04:39 81.32, -88.76 64.75 07/26/2014 21:05:47 81.33, -88.70 64.79 1.01 68
6 07/
